Wrangell, AK

11:33 AM AKST on December 10, 2016 (GMT -0900)
Wrangell

Weather History for PAWG - April, 2014

Change the Weather History Date:

Saturday, April 5, 2014

  Actual Average Record
Temperature  
Mean Temperature 39 °F -  
Max Temperature 41 °F 46 °F 54 °F (1958)
Min Temperature 37 °F 33 °F 24 °F (1954)
Degree Days  
Heating Degree Days 26    
Moisture  
Dew Point 34 °F    
Average Humidity 83    
Maximum Humidity 87    
Minimum Humidity 75    
Precipitation  
Precipitation 0.44 in - - ()
Sea Level Pressure  
Sea Level Pressure 29.68 in    
Wind  
Wind Speed 9 mph (East)    
Max Wind Speed 16 mph    
Max Gust Speed 21 mph    
Visibility 10 miles    
Events      
Averages and records for this station are not official NWS values.
T = Trace of Precipitation, MM = Missing Value Source: NWS Daily Summary

Daily Weather History Graph

Daily Weather History Graph

Search for Another Location

Airport or City:

Trip Planner

Search our weather history database for the weather conditions in past years. The results will help you decide how hot, cold, wet, or windy it might be!

Date:

Astronomy

Apr. 05, 2014 Rise Set
Actual Time 6:08 AM AKDT 7:37 PM AKDT
Civil Twilight 5:29 AM AKDT 8:16 PM AKDT
Nautical Twilight 4:40 AM AKDT 9:05 PM AKDT
Astronomical Twilight 3:46 AM AKDT 10:00 PM AKDT
Moon 9:41 AM AKDT (4/5) 1:33 AM AKDT (4/5)
Length of Visible Light 14h 47m
Length of Day
13h 28m
Waxing Crescent, 36% of the Moon is Illuminated
Apr 5
Waxing Crescent
Apr 7
First Quarter
Apr 14
Full
Apr 21
Last Quarter
Apr 28
New

Hourly Weather History & Observations

Time (AKDT) Temp. Windchill Dew Point Humidity Pressure Visibility Wind Dir Wind Speed Gust Speed Precip Events Conditions
12:16 AM 39.2 °F 31.6 °F 32.0 °F 75% 29.68 in 10.0 mi ENE 12.7 mph 17.3 mph N/A   Mostly Cloudy
12:36 AM 39.2 °F 33.0 °F 32.0 °F 75% 29.68 in 10.0 mi East 9.2 mph - N/A   Overcast
12:56 AM 39.2 °F 32.0 °F 32.0 °F 75% 29.67 in 10.0 mi East 11.5 mph - N/A   Mostly Cloudy
1:16 AM 39.2 °F 32.0 °F 32.0 °F 75% 29.66 in 10.0 mi East 11.5 mph 16.1 mph N/A   Mostly Cloudy
1:36 AM 39.2 °F 32.5 °F 32.0 °F 75% 29.65 in 10.0 mi East 10.4 mph 17.3 mph N/A   Mostly Cloudy
1:56 AM 39.2 °F 32.0 °F 32.0 °F 75% 29.65 in 10.0 mi East 11.5 mph 18.4 mph N/A   Overcast
2:16 AM 39.2 °F 33.0 °F 32.0 °F 75% 29.64 in 10.0 mi East 9.2 mph - N/A   Overcast
2:36 AM 39.2 °F 31.6 °F 32.0 °F 75% 29.64 in 10.0 mi ENE 12.7 mph 17.3 mph N/A   Overcast
2:56 AM 39.2 °F 30.8 °F 32.0 °F 75% 29.62 in 10.0 mi ENE 15.0 mph 19.6 mph N/A   Overcast
3:16 AM 39.2 °F 31.2 °F 32.0 °F 75% 29.62 in 10.0 mi ENE 13.8 mph - N/A   Overcast
3:36 AM 39.2 °F 31.6 °F 32.0 °F 75% 29.62 in 10.0 mi East 12.7 mph - N/A   Overcast
3:56 AM 39.2 °F 31.2 °F 32.0 °F 75% 29.61 in 10.0 mi ENE 13.8 mph 19.6 mph N/A   Overcast
4:16 AM 39.2 °F 30.5 °F 33.8 °F 81% 29.61 in 10.0 mi ENE 16.1 mph 19.6 mph N/A   Overcast
4:36 AM 37.4 °F 28.5 °F 32.0 °F 81% 29.60 in 10.0 mi East 15.0 mph 18.4 mph N/A   Overcast
4:56 AM 37.4 °F 29.8 °F 33.8 °F 87% 29.60 in 10.0 mi East 11.5 mph - N/A   Overcast
5:16 AM 37.4 °F 28.9 °F 32.0 °F 81% 29.60 in 10.0 mi East 13.8 mph 17.3 mph 0.01 in   Overcast
5:36 AM 37.4 °F 29.8 °F 32.0 °F 81% 29.59 in 10.0 mi East 11.5 mph 20.7 mph 0.01 in   Overcast
5:56 AM 37.4 °F 28.9 °F 32.0 °F 81% 29.59 in 10.0 mi East 13.8 mph - 0.01 in   Overcast
6:16 AM 37.4 °F 29.8 °F 32.0 °F 81% 29.59 in 10.0 mi East 11.5 mph - N/A   Overcast
6:36 AM 37.4 °F 29.8 °F 32.0 °F 81% 29.59 in 10.0 mi East 11.5 mph - N/A   Overcast
6:56 AM 37.4 °F 29.3 °F 32.0 °F 81% 29.59 in 10.0 mi East 12.7 mph 17.3 mph N/A   Overcast
7:16 AM 37.4 °F 30.3 °F 33.8 °F 87% 29.59 in 10.0 mi ESE 10.4 mph - N/A   Overcast
7:36 AM 37.4 °F 30.8 °F 33.8 °F 87% 29.59 in 10.0 mi East 9.2 mph - 0.01 in   Overcast
7:56 AM 37.4 °F 30.8 °F 33.8 °F 87% 29.60 in 10.0 mi ESE 9.2 mph - 0.01 in   Overcast
8:16 AM 37.4 °F 32.8 °F 33.8 °F 87% 29.60 in 10.0 mi SE 5.8 mph - 0.01 in   Overcast
8:36 AM 37.4 °F 31.4 °F 33.8 °F 87% 29.60 in 10.0 mi East 8.1 mph - 0.06 in   Overcast
8:56 AM 37.4 °F 31.4 °F 33.8 °F 87% 29.60 in 10.0 mi ESE 8.1 mph - 0.07 in   Overcast
9:16 AM 37.4 °F 30.8 °F 33.8 °F 87% 29.60 in 10.0 mi East 9.2 mph - 0.01 in   Overcast
9:36 AM 37.4 °F 31.4 °F 33.8 °F 87% 29.61 in 10.0 mi ESE 8.1 mph - 0.02 in   Overcast
9:56 AM 37.4 °F 34.9 °F 33.8 °F 87% 29.62 in 10.0 mi ESE 3.5 mph - 0.03 in   Overcast
10:16 AM 39.2 °F 34.2 °F 33.8 °F 81% 29.62 in 10.0 mi East 6.9 mph - N/A   Overcast
10:36 AM 39.2 °F 33.6 °F 33.8 °F 81% 29.62 in 10.0 mi SE 8.1 mph - 0.01 in   Overcast
10:56 AM 37.4 °F - 33.8 °F 87% 29.63 in 10.0 mi Calm Calm - 0.02 in   Overcast
11:16 AM 37.4 °F 34.9 °F 33.8 °F 87% 29.63 in 10.0 mi North 3.5 mph - 0.01 in   Overcast
11:36 AM 39.2 °F 33.6 °F 35.6 °F 87% 29.64 in 10.0 mi East 8.1 mph - 0.02 in   Overcast
11:56 AM 39.2 °F 33.6 °F 35.6 °F 87% 29.64 in 10.0 mi East 8.1 mph - 0.03 in   Overcast
12:16 PM 39.2 °F 35.0 °F 33.8 °F 81% 29.65 in 10.0 mi ESE 5.8 mph - N/A   Overcast
12:36 PM 39.2 °F 37.0 °F 35.6 °F 87% 29.65 in 10.0 mi East 3.5 mph - 0.01 in   Overcast
12:56 PM 39.2 °F - 33.8 °F 81% 29.66 in 7.0 mi Calm Calm - 0.02 in   Overcast
1:16 PM 39.2 °F - 35.6 °F 87% 29.66 in 7.0 mi Calm Calm - 0.01 in   Overcast
1:36 PM 39.2 °F 35.0 °F 35.6 °F 87% 29.66 in 7.0 mi ENE 5.8 mph - 0.02 in   Overcast
1:56 PM 41.0 °F 39.0 °F 35.6 °F 81% 29.68 in 7.0 mi East 3.5 mph - 0.03 in   Overcast
2:16 PM 41.0 °F 39.0 °F 35.6 °F 81% 29.68 in 7.0 mi ESE 3.5 mph - 0.01 in   Overcast
2:36 PM 41.0 °F - 35.6 °F 81% 29.69 in 7.0 mi Calm Calm - 0.02 in   Overcast
2:56 PM 41.0 °F 39.0 °F 35.6 °F 81% 29.69 in 7.0 mi NE 3.5 mph - 0.02 in   Mostly Cloudy
3:16 PM 41.0 °F 39.0 °F 35.6 °F 81% 29.70 in 10.0 mi SE 3.5 mph - N/A   Mostly Cloudy
3:36 PM 41.0 °F - 35.6 °F 81% 29.70 in 10.0 mi Calm Calm - 0.01 in   Mostly Cloudy
3:56 PM 41.0 °F - 35.6 °F 81% 29.70 in 10.0 mi Calm Calm - 0.01 in   Overcast
4:16 PM 41.0 °F 35.2 °F 35.6 °F 81% 29.71 in 10.0 mi ESE 9.2 mph - 0.01 in   Overcast
4:36 PM 41.0 °F 34.3 °F 35.6 °F 81% 29.71 in 10.0 mi East 11.5 mph - 0.01 in   Overcast
4:56 PM 41.0 °F 35.8 °F 35.6 °F 81% 29.72 in 10.0 mi ESE 8.1 mph - 0.01 in   Overcast
5:16 PM 41.0 °F 35.8 °F 35.6 °F 81% 29.72 in 10.0 mi ESE 8.1 mph - N/A   Overcast
5:36 PM 41.0 °F 36.4 °F 35.6 °F 81% 29.73 in 10.0 mi ESE 6.9 mph - 0.01 in   Overcast
5:56 PM 41.0 °F 37.1 °F 35.6 °F 81% 29.74 in 10.0 mi SE 5.8 mph - 0.03 in   Overcast
6:16 PM 39.2 °F 34.2 °F 35.6 °F 87% 29.75 in 10.0 mi East 6.9 mph - 0.02 in   Overcast
6:36 PM 39.2 °F 35.0 °F 35.6 °F 87% 29.75 in 10.0 mi ESE 5.8 mph - 0.02 in   Overcast
6:56 PM 39.2 °F - 35.6 °F 87% 29.76 in 10.0 mi Calm Calm - 0.03 in   Overcast
7:16 PM 39.2 °F - 35.6 °F 87% 29.76 in 10.0 mi Calm Calm - 0.02 in   Overcast
7:36 PM 39.2 °F - 35.6 °F 87% 29.77 in 10.0 mi Calm Calm - 0.04 in   Overcast
7:56 PM 39.2 °F 35.9 °F 35.6 °F 87% 29.78 in 10.0 mi ESE 4.6 mph - 0.08 in   Overcast
8:16 PM 39.2 °F 35.9 °F 35.6 °F 87% 29.79 in 10.0 mi ESE 4.6 mph - 0.01 in   Overcast
8:36 PM 39.2 °F 35.0 °F 35.6 °F 87% 29.79 in 10.0 mi ESE 5.8 mph - 0.01 in   Overcast
8:56 PM 39.2 °F 32.5 °F 35.6 °F 87% 29.80 in 10.0 mi ESE 10.4 mph - 0.01 in   Overcast
9:16 PM 39.2 °F 32.5 °F 35.6 °F 87% 29.81 in 10.0 mi ESE 10.4 mph - 0.01 in   Overcast
9:36 PM 39.2 °F 33.6 °F 35.6 °F 87% 29.82 in 10.0 mi SE 8.1 mph - 0.02 in   Overcast
9:56 PM 39.2 °F 35.0 °F 35.6 °F 87% 29.82 in 10.0 mi SE 5.8 mph - 0.02 in   Overcast
10:16 PM 39.2 °F 33.6 °F 35.6 °F 87% 29.83 in 10.0 mi ESE 8.1 mph - 0.01 in   Overcast
10:36 PM 39.2 °F 33.6 °F 35.6 °F 87% 29.83 in 10.0 mi ESE 8.1 mph - 0.01 in   Overcast
10:56 PM 39.2 °F 33.0 °F 35.6 °F 87% 29.83 in 10.0 mi ESE 9.2 mph - 0.01 in   Overcast
11:16 PM 39.2 °F 32.0 °F 35.6 °F 87% 29.83 in 10.0 mi ESE 11.5 mph - N/A   Overcast
11:36 PM 39.2 °F 32.5 °F 35.6 °F 87% 29.84 in 10.0 mi ESE 10.4 mph - N/A   Overcast
11:56 PM 39.2 °F 32.5 °F 35.6 °F 87% 29.85 in 10.0 mi ESE 10.4 mph - N/A   Overcast